SPAINSAT                
1 28945U 06007A   19260.09506121 -.00000222  00000-0  00000+0 0  9999
2 28945   0.0474 248.5557 0005768 310.6738 160.7651  1.00271363 49513
EUTELSAT HOT BIRD 13E   
1 28946U 06007B   19260.15177142  .00000082  00000-0  00000+0 0  9997
2 28946   0.0307 201.2812 0007128 344.9695 237.1877  1.00271873 49585
ARIANE 5 DEB [SYLDA]    
1 28947U 06007C   19259.70441304  .00009086  00000-0  10290-2 0  9999
2 28947   4.7345 103.9981 5842940 234.2525  56.7071  4.30593391156297
ARIANE 5 R/B            
1 28948U 06007D   19259.82171085  .00001426  00000-0  33935-3 0  9991
2 28948   4.9044 300.2841 7098404 200.5239 101.8632  2.51648102118892